TimeCDT,TemperatureF,Dew PointF,Humidity,Sea Level PressureIn,VisibilityMPH,Wind Direction,Wind SpeedMPH,Gust SpeedMPH,PrecipitationIn,Events,Conditions,WindDirDegrees,DateUTC
12:15 AM,59.0,42.8,55,29.87,10.0,South,6.9,-,N/A,,Clear,170,2012-10-04 05:15:00
12:35 AM,60.8,42.8,52,29.86,10.0,South,8.1,-,N/A,,Clear,170,2012-10-04 05:35:00
12:55 AM,60.8,42.8,52,29.86,10.0,South,6.9,-,N/A,,Clear,180,2012-10-04 05:55:00
1:15 AM,60.8,44.6,55,29.85,10.0,South,6.9,-,N/A,,Clear,170,2012-10-04 06:15:00
1:35 AM,60.8,44.6,55,29.84,10.0,South,10.4,-,N/A,,Clear,170,2012-10-04 06:35:00
1:55 AM,62.6,44.6,52,29.83,10.0,South,9.2,-,N/A,,Clear,180,2012-10-04 06:55:00
2:15 AM,62.6,44.6,52,29.82,10.0,South,9.2,16.1,N/A,,Clear,170,2012-10-04 07:15:00
2:35 AM,60.8,44.6,55,29.81,10.0,South,11.5,-,N/A,,Clear,180,2012-10-04 07:35:00
2:55 AM,60.8,44.6,55,29.80,10.0,South,9.2,-,N/A,,Clear,180,2012-10-04 07:55:00
3:15 AM,60.8,44.6,55,29.79,10.0,South,10.4,-,N/A,,Clear,180,2012-10-04 08:15:00
3:35 AM,59.0,44.6,59,29.78,10.0,South,10.4,-,N/A,,Clear,170,2012-10-04 08:35:00
3:55 AM,59.0,44.6,59,29.77,10.0,South,10.4,-,N/A,,Clear,170,2012-10-04 08:55:00
4:15 AM,59.0,44.6,59,29.76,10.0,South,9.2,-,N/A,,Clear,170,2012-10-04 09:15:00
4:35 AM,59.0,42.8,55,29.75,10.0,South,10.4,-,N/A,,Clear,180,2012-10-04 09:35:00
4:55 AM,59.0,42.8,55,29.75,10.0,South,10.4,-,N/A,,Scattered Clouds,190,2012-10-04 09:55:00
5:15 AM,59.0,42.8,55,29.74,10.0,South,11.5,19.6,N/A,,Mostly Cloudy,190,2012-10-04 10:15:00
5:35 AM,59.0,42.8,55,29.74,10.0,SSW,10.4,-,N/A,,Mostly Cloudy,200,2012-10-04 10:35:00
5:55 AM,59.0,42.8,55,29.74,10.0,SSW,11.5,16.1,N/A,,Scattered Clouds,210,2012-10-04 10:55:00
6:15 AM,59.0,41.0,51,29.74,10.0,SW,15.0,18.4,N/A,,Clear,230,2012-10-04 11:15:00
6:35 AM,55.4,39.2,54,29.76,10.0,WSW,18.4,26.5,N/A,,Clear,240,2012-10-04 11:35:00
6:55 AM,51.8,41.0,67,29.77,10.0,West,17.3,24.2,N/A,,Clear,270,2012-10-04 11:55:00
7:15 AM,48.2,39.2,71,29.79,10.0,WSW,18.4,29.9,N/A,,Scattered Clouds,240,2012-10-04 12:15:00
7:35 AM,48.2,39.2,71,29.79,10.0,WSW,11.5,25.3,N/A,,Overcast,240,2012-10-04 12:35:00
7:55 AM,48.2,39.2,71,29.80,10.0,WSW,15.0,20.7,N/A,,Overcast,250,2012-10-04 12:55:00
8:15 AM,48.2,39.2,71,29.80,10.0,West,21.9,27.6,N/A,,Overcast,260,2012-10-04 13:15:00
8:35 AM,48.2,39.2,71,29.81,10.0,West,12.7,21.9,N/A,,Overcast,260,2012-10-04 13:35:00
8:55 AM,48.2,39.2,71,29.81,10.0,WSW,15.0,24.2,N/A,,Overcast,240,2012-10-04 13:55:00
9:15 AM,46.4,37.4,71,29.81,10.0,WSW,16.1,25.3,N/A,,Overcast,240,2012-10-04 14:15:00
9:35 AM,46.4,37.4,71,29.82,10.0,WSW,21.9,27.6,N/A,,Overcast,250,2012-10-04 14:35:00
9:55 AM,46.4,37.4,71,29.83,10.0,WSW,18.4,27.6,N/A,,Overcast,250,2012-10-04 14:55:00
10:15 AM,46.4,35.6,66,29.84,10.0,West,21.9,28.8,N/A,,Overcast,260,2012-10-04 15:15:00
10:35 AM,44.6,35.6,71,29.84,10.0,West,16.1,28.8,N/A,,Overcast,260,2012-10-04 15:35:00
10:55 AM,44.6,33.8,66,29.85,10.0,West,23.0,33.4,N/A,,Overcast,270,2012-10-04 15:55:00
11:15 AM,46.4,33.8,62,29.86,10.0,West,23.0,33.4,N/A,,Overcast,270,2012-10-04 16:15:00
11:35 AM,46.4,32.0,57,29.87,10.0,West,24.2,31.1,N/A,,Overcast,270,2012-10-04 16:35:00
11:55 AM,44.6,32.0,61,29.88,10.0,West,18.4,33.4,N/A,,Overcast,270,2012-10-04 16:55:00
12:15 PM,46.4,32.0,57,29.89,10.0,West,21.9,33.4,N/A,,Overcast,270,2012-10-04 17:15:00
12:35 PM,46.4,32.0,57,29.90,10.0,West,18.4,27.6,N/A,,Overcast,270,2012-10-04 17:35:00
12:55 PM,44.6,32.0,61,29.90,10.0,West,21.9,32.2,N/A,,Overcast,270,2012-10-04 17:55:00
1:15 PM,46.4,32.0,57,29.90,10.0,West,25.3,35.7,N/A,,Overcast,270,2012-10-04 18:15:00
1:35 PM,46.4,32.0,57,29.91,10.0,West,26.5,33.4,N/A,,Overcast,280,2012-10-04 18:35:00
1:55 PM,48.2,32.0,54,29.91,10.0,West,21.9,33.4,N/A,,Overcast,280,2012-10-04 18:55:00
2:15 PM,50.0,30.2,47,29.92,10.0,WNW,13.8,33.4,N/A,,Mostly Cloudy,300,2012-10-04 19:15:00
2:35 PM,50.0,30.2,47,29.92,10.0,West,20.7,33.4,N/A,,Mostly Cloudy,280,2012-10-04 19:35:00
2:55 PM,50.0,30.2,47,29.93,10.0,WNW,21.9,29.9,N/A,,Scattered Clouds,290,2012-10-04 19:55:00
3:15 PM,50.0,30.2,47,29.93,10.0,West,24.2,38.0,N/A,,Scattered Clouds,280,2012-10-04 20:15:00
3:35 PM,48.2,30.2,50,29.94,10.0,WNW,16.1,34.5,N/A,,Scattered Clouds,290,2012-10-04 20:35:00
3:55 PM,48.2,30.2,50,29.95,10.0,WNW,16.1,31.1,N/A,,Mostly Cloudy,290,2012-10-04 20:55:00
4:15 PM,46.4,30.2,53,29.96,10.0,WNW,18.4,29.9,N/A,,Overcast,290,2012-10-04 21:15:00
4:35 PM,46.4,30.2,53,29.97,10.0,WNW,19.6,28.8,N/A,,Overcast,290,2012-10-04 21:35:00
4:55 PM,46.4,30.2,53,29.98,10.0,WNW,21.9,27.6,N/A,,Overcast,290,2012-10-04 21:55:00
5:15 PM,44.6,30.2,57,29.99,10.0,WNW,15.0,29.9,N/A,,Overcast,300,2012-10-04 22:15:00
5:35 PM,44.6,30.2,57,30.00,10.0,WNW,20.7,27.6,N/A,,Overcast,300,2012-10-04 22:35:00
5:55 PM,44.6,30.2,57,30.00,10.0,WNW,12.7,28.8,N/A,,Overcast,290,2012-10-04 22:55:00
6:15 PM,42.8,30.2,61,30.00,10.0,WNW,17.3,26.5,N/A,,Overcast,290,2012-10-04 23:15:00
6:35 PM,42.8,30.2,61,30.01,10.0,WNW,16.1,31.1,N/A,,Overcast,300,2012-10-04 23:35:00
6:55 PM,42.8,30.2,61,30.01,10.0,WNW,16.1,31.1,N/A,,Overcast,300,2012-10-04 23:55:00
7:15 PM,42.8,30.2,61,30.02,10.0,WNW,19.6,32.2,N/A,,Overcast,300,2012-10-05 00:15:00
7:35 PM,42.8,28.4,57,30.02,10.0,WNW,21.9,29.9,N/A,,Overcast,300,2012-10-05 00:35:00
7:55 PM,41.0,30.2,65,30.03,10.0,WNW,13.8,33.4,N/A,,Overcast,300,2012-10-05 00:55:00
8:15 PM,41.0,30.2,65,30.03,10.0,West,16.1,24.2,N/A,,Overcast,280,2012-10-05 01:15:00
8:35 PM,41.0,28.4,61,30.03,10.0,WNW,18.4,26.5,N/A,,Overcast,300,2012-10-05 01:35:00
9:15 PM,41.0,28.4,61,30.03,10.0,WNW,17.3,26.5,N/A,,Overcast,300,2012-10-05 02:15:00
9:35 PM,41.0,28.4,61,30.04,10.0,WNW,19.6,28.8,N/A,,Overcast,290,2012-10-05 02:35:00
9:55 PM,39.2,28.4,65,30.04,10.0,WNW,16.1,25.3,N/A,,Overcast,290,2012-10-05 02:55:00
10:15 PM,39.2,28.4,65,30.05,10.0,WNW,17.3,23.0,N/A,,Overcast,290,2012-10-05 03:15:00
10:35 PM,39.2,28.4,65,30.05,10.0,WNW,16.1,23.0,N/A,,Overcast,290,2012-10-05 03:35:00
10:55 PM,39.2,28.4,65,30.05,10.0,West,15.0,28.8,N/A,,Overcast,270,2012-10-05 03:55:00
11:15 PM,37.4,30.2,75,30.05,10.0,West,15.0,20.7,N/A,,Overcast,270,2012-10-05 04:15:00
11:35 PM,39.2,30.2,70,30.05,10.0,West,19.6,26.5,N/A,,Overcast,280,2012-10-05 04:35:00
11:55 PM,39.2,30.2,70,30.05,10.0,WNW,12.7,23.0,N/A,,Overcast,290,2012-10-05 04:55:00